Карточка аэропорта URMG

Внимание!
Информация на этой странице в стадии наполнения.
Если вы не увидели какой-то информации, или заметили неточность - пожалуйста сообщите нам!
Спасибо!
Команда RU-STAFF
Название аэропорта Грозный
Название аэропорта (англ.)Grozniy
Превышение545 ft. (166.1 m.)
Координаты43°23.292', 45°41.988'
Высота перехода1900 m
Эшелон переходаFL80
Коды ответчика2410-2417
Зона ОрВДРостов-на-Дону РПИ (URRV)
Данные METARURMG 272000Z 08002MPS CAVOK 15/13 Q1007 R08/090070 TEMPO 0300 FG BKN002 RMK QFE741/0988
Проноз погоды (TAF)
NOTAMshow/hide NOTAM
AWOS   TABLE

Информация о ВПП

ВПП Длина ВПП (м.) Покрытие Курс ВПП Частота ILS
082505Асфальтобетон80 
262505Асфальтобетон260108.7

Диспетчерские позиции

Позывной Наименование органа УВД Частота
URMG_R_APPГрозный-Вышка120.200
URMG_TWRГрозный-Старт119.0



Спутниковое изображение